Time,TemperatureF,DewpointF,PressureIn,WindDirection,WindDirectionDegrees,WindSpeedMPH,WindSpeedGustMPH,Humidity,HourlyPrecipIn,Conditions,Clouds,dailyrainin,SoftwareType,DateUTC
2013-07-30 00:04:00,67.5,58.1,30.09,North,0,0.0,0.0,72,0.00,,,0.00,WUHU21623XXSP,2013-07-30 05:04:00,
2013-07-30 00:09:00,67.3,58.3,30.09,North,0,0.0,0.0,73,0.00,,,0.00,WUHU21623XXSP,2013-07-30 05:09:00,
2013-07-30 00:14:00,67.3,58.3,30.09,North,0,0.0,0.0,73,0.00,,,0.00,WUHU21623XXSP,2013-07-30 05:14:00,
2013-07-30 00:19:00,67.1,58.2,30.08,North,0,0.0,0.0,73,0.00,,,0.00,WUHU21623XXSP,2013-07-30 05:19:00,
2013-07-30 00:24:00,66.9,58.4,30.09,North,0,0.0,0.0,74,0.00,,,0.00,WUHU21623XXSP,2013-07-30 05:24:00,
2013-07-30 00:29:00,66.9,58.4,30.09,North,0,0.0,0.0,74,0.00,,,0.00,WUHU21623XXSP,2013-07-30 05:29:00,
2013-07-30 00:34:00,66.7,58.5,30.08,North,0,0.0,0.0,75,0.00,,,0.00,WUHU21623XXSP,2013-07-30 05:34:00,
2013-07-30 00:39:00,66.7,58.5,30.08,North,0,0.0,0.0,75,0.00,,,0.00,WUHU21623XXSP,2013-07-30 05:39:00,
2013-07-30 00:44:00,66.6,58.4,30.08,North,0,0.0,0.0,75,0.00,,,0.00,WUHU21623XXSP,2013-07-30 05:44:00,
2013-07-30 00:49:00,66.6,58.4,30.07,North,0,0.0,0.0,75,0.00,,,0.00,WUHU21623XXSP,2013-07-30 05:49:00,
2013-07-30 00:54:00,66.6,58.7,30.07,North,0,0.0,0.0,76,0.00,,,0.00,WUHU21623XXSP,2013-07-30 05:54:00,
2013-07-30 00:59:00,66.4,58.6,30.07,North,0,0.0,0.0,76,0.00,,,0.00,WUHU21623XXSP,2013-07-30 05:59:00,
2013-07-30 01:04:00,66.4,58.6,30.07,North,0,0.0,0.0,76,0.00,,,0.00,WUHU21623XXSP,2013-07-30 06:04:00,
2013-07-30 01:09:00,66.4,58.6,30.07,North,0,0.0,0.0,76,0.00,,,0.00,WUHU21623XXSP,2013-07-30 06:09:00,
2013-07-30 01:14:00,66.4,58.9,30.07,North,0,0.0,0.0,77,0.00,,,0.00,WUHU21623XXSP,2013-07-30 06:14:00,
2013-07-30 01:19:00,66.2,58.8,30.07,North,0,0.0,0.0,77,0.00,,,0.00,WUHU21623XXSP,2013-07-30 06:19:00,
2013-07-30 01:24:00,66.0,58.6,30.06,North,0,0.0,0.0,77,0.00,,,0.00,WUHU21623XXSP,2013-07-30 06:24:00,
2013-07-30 01:29:00,66.0,58.6,30.06,North,0,0.0,0.0,77,0.00,,,0.00,WUHU21623XXSP,2013-07-30 06:29:00,
2013-07-30 01:34:00,65.8,58.8,30.06,North,0,0.0,0.0,78,0.00,,,0.00,WUHU21623XXSP,2013-07-30 06:34:00,
2013-07-30 01:39:00,65.8,58.8,30.06,North,0,0.0,0.0,78,0.00,,,0.00,WUHU21623XXSP,2013-07-30 06:39:00,
2013-07-30 01:44:00,65.7,59.0,30.06,North,0,0.0,0.0,79,0.00,,,0.00,WUHU21623XXSP,2013-07-30 06:44:00,
2013-07-30 01:49:00,65.5,58.8,30.06,North,0,0.0,0.0,79,0.00,,,0.00,WUHU21623XXSP,2013-07-30 06:49:00,
2013-07-30 01:54:00,65.5,58.8,30.06,North,0,0.0,0.0,79,0.00,,,0.00,WUHU21623XXSP,2013-07-30 06:54:00,
2013-07-30 01:59:00,65.1,58.8,30.07,North,0,0.0,0.0,80,0.00,,,0.00,WUHU21623XXSP,2013-07-30 06:59:00,
2013-07-30 02:04:00,65.1,58.8,30.06,North,0,0.0,0.0,80,0.00,,,0.00,WUHU21623XXSP,2013-07-30 07:04:00,
2013-07-30 02:09:00,65.1,58.8,30.06,North,0,0.0,0.0,80,0.00,,,0.00,WUHU21623XXSP,2013-07-30 07:09:00,
2013-07-30 02:14:00,65.1,59.1,30.06,North,0,0.0,0.0,81,0.00,,,0.00,WUHU21623XXSP,2013-07-30 07:14:00,
2013-07-30 02:19:00,65.1,59.1,30.06,North,0,0.0,0.0,81,0.00,,,0.00,WUHU21623XXSP,2013-07-30 07:19:00,
2013-07-30 02:24:00,65.1,59.1,30.06,North,0,0.0,0.0,81,0.00,,,0.00,WUHU21623XXSP,2013-07-30 07:24:00,
2013-07-30 02:29:00,65.1,59.1,30.06,North,0,0.0,0.0,81,0.00,,,0.00,WUHU21623XXSP,2013-07-30 07:29:00,
2013-07-30 02:34:00,65.1,59.1,30.06,North,0,0.0,0.0,81,0.00,,,0.00,WUHU21623XXSP,2013-07-30 07:34:00,
2013-07-30 02:39:00,65.1,59.1,30.06,North,0,0.0,0.0,81,0.00,,,0.00,WUHU21623XXSP,2013-07-30 07:39:00,
2013-07-30 02:44:00,65.1,59.5,30.06,North,0,0.0,0.0,82,0.00,,,0.00,WUHU21623XXSP,2013-07-30 07:44:00,
2013-07-30 02:49:00,64.9,59.3,30.06,North,0,0.0,0.0,82,0.00,,,0.00,WUHU21623XXSP,2013-07-30 07:49:00,
2013-07-30 02:54:00,64.9,59.3,30.06,North,0,0.0,0.0,82,0.00,,,0.00,WUHU21623XXSP,2013-07-30 07:54:00,
2013-07-30 02:59:00,64.9,59.3,30.06,North,0,0.0,0.0,82,0.00,,,0.00,WUHU21623XXSP,2013-07-30 07:59:00,
2013-07-30 03:04:00,64.8,59.5,30.06,North,0,0.0,0.0,83,0.00,,,0.00,WUHU21623XXSP,2013-07-30 08:04:00,
2013-07-30 03:09:00,64.8,59.5,30.06,North,0,0.0,0.0,83,0.00,,,0.00,WUHU21623XXSP,2013-07-30 08:09:00,
2013-07-30 03:14:00,64.9,59.6,30.06,North,0,0.0,0.0,83,0.00,,,0.00,WUHU21623XXSP,2013-07-30 08:14:00,
2013-07-30 03:19:00,64.9,59.6,30.07,North,0,0.0,0.0,83,0.00,,,0.00,WUHU21623XXSP,2013-07-30 08:19:00,
2013-07-30 03:25:00,65.1,59.6,30.06,North,0,0.0,0.0,83,0.00,,,0.00,WUHU21623XXSP,2013-07-30 08:25:00,
2013-07-30 03:30:00,65.1,59.8,30.06,North,0,0.0,0.0,83,0.00,,,0.00,WUHU21623XXSP,2013-07-30 08:30:00,
2013-07-30 03:35:00,65.1,59.8,30.07,North,0,0.0,0.0,83,0.00,,,0.00,WUHU21623XXSP,2013-07-30 08:35:00,
2013-07-30 03:40:00,65.1,59.8,30.07,North,0,0.0,0.0,83,0.00,,,0.00,WUHU21623XXSP,2013-07-30 08:40:00,
2013-07-30 04:26:00,65.3,60.0,30.07,North,0,0.0,0.0,83,0.00,,,0.00,WUHU21623XXSP,2013-07-30 09:26:00,
2013-07-30 05:26:00,64.8,59.6,30.08,North,0,0.0,0.0,83,0.00,,,0.00,WUHU21623XXSP,2013-07-30 10:26:00,
2013-07-30 06:26:00,64.2,59.3,30.09,North,0,0.0,0.0,84,0.00,,,0.00,WUHU21623XXSP,2013-07-30 11:26:00,
2013-07-30 06:56:00,64.2,59.6,30.09,North,0,0.0,0.0,85,0.00,,,0.00,WUHU21623XXSP,2013-07-30 11:56:00,
2013-07-30 07:01:00,64.2,59.6,30.09,North,0,0.0,0.0,85,0.00,,,0.00,WUHU21623XXSP,2013-07-30 12:01:00,
2013-07-30 07:06:00,64.0,59.5,30.09,North,0,0.0,0.0,85,0.00,,,0.00,WUHU21623XXSP,2013-07-30 12:06:00,
2013-07-30 07:12:00,64.0,59.8,30.09,North,0,0.0,0.0,86,0.00,,,0.00,WUHU21623XXSP,2013-07-30 12:12:00,
2013-07-30 07:17:00,64.0,59.8,30.09,North,0,0.0,0.0,86,0.00,,,0.00,WUHU21623XXSP,2013-07-30 12:17:00,
2013-07-30 07:22:00,64.0,59.8,30.09,North,0,0.0,0.0,86,0.00,,,0.00,WUHU21623XXSP,2013-07-30 12:22:00,
2013-07-30 07:27:00,64.0,59.8,30.09,North,0,0.0,0.0,86,0.00,,,0.00,WUHU21623XXSP,2013-07-30 12:27:00,
2013-07-30 07:32:00,64.0,59.8,30.09,North,0,0.0,0.0,86,0.00,,,0.00,WUHU21623XXSP,2013-07-30 12:32:00,
2013-07-30 07:37:00,64.0,59.8,30.09,North,0,0.0,0.0,86,0.00,,,0.00,WUHU21623XXSP,2013-07-30 12:37:00,
2013-07-30 07:42:00,64.2,60.3,30.09,North,0,0.0,0.0,87,0.00,,,0.00,WUHU21623XXSP,2013-07-30 12:42:00,
2013-07-30 07:47:00,64.0,60.1,30.09,North,0,0.0,0.0,87,0.00,,,0.00,WUHU21623XXSP,2013-07-30 12:47:00,
2013-07-30 07:52:00,64.0,60.1,30.10,North,0,0.0,0.0,87,0.00,,,0.00,WUHU21623XXSP,2013-07-30 12:52:00,
2013-07-30 07:57:00,64.2,60.3,30.09,North,0,0.0,0.0,87,0.00,,,0.00,WUHU21623XXSP,2013-07-30 12:57:00,
2013-07-30 08:02:00,64.2,60.3,30.09,North,0,0.0,0.0,87,0.00,,,0.00,WUHU21623XXSP,2013-07-30 13:02:00,
2013-07-30 08:07:00,64.2,60.3,30.09,North,0,0.0,0.0,87,0.00,,,0.00,WUHU21623XXSP,2013-07-30 13:07:00,
2013-07-30 08:12:00,64.4,60.5,30.09,North,0,0.0,0.0,87,0.00,,,0.00,WUHU21623XXSP,2013-07-30 13:12:00,
2013-07-30 08:17:00,64.6,60.7,30.09,North,0,0.0,0.0,87,0.00,,,0.00,WUHU21623XXSP,2013-07-30 13:17:00,
2013-07-30 08:22:00,64.6,60.7,30.09,North,0,0.0,0.0,87,0.00,,,0.00,WUHU21623XXSP,2013-07-30 13:22:00,
2013-07-30 08:27:00,64.6,60.7,30.09,North,0,0.0,0.0,87,0.00,,,0.00,WUHU21623XXSP,2013-07-30 13:27:00,
2013-07-30 08:32:00,64.6,60.7,30.09,North,0,0.0,0.0,87,0.00,,,0.00,WUHU21623XXSP,2013-07-30 13:32:00,
2013-07-30 08:37:00,64.6,60.7,30.09,North,0,0.0,0.0,87,0.00,,,0.00,WUHU21623XXSP,2013-07-30 13:37:00,
2013-07-30 08:42:00,64.8,60.8,30.09,North,0,0.0,0.0,87,0.00,,,0.00,WUHU21623XXSP,2013-07-30 13:42:00,
2013-07-30 08:47:00,64.9,61.0,30.09,North,0,0.0,0.0,87,0.00,,,0.00,WUHU21623XXSP,2013-07-30 13:47:00,
2013-07-30 08:52:00,65.1,61.2,30.09,North,0,0.0,0.0,87,0.00,,,0.00,WUHU21623XXSP,2013-07-30 13:52:00,
2013-07-30 08:57:00,65.1,61.2,30.09,North,0,0.0,0.0,87,0.00,,,0.00,WUHU21623XXSP,2013-07-30 13:57:00,
2013-07-30 09:02:00,65.3,61.3,30.09,North,0,0.0,0.0,87,0.00,,,0.00,WUHU21623XXSP,2013-07-30 14:02:00,
2013-07-30 09:07:00,65.3,61.3,30.09,North,0,0.0,0.0,87,0.00,,,0.00,WUHU21623XXSP,2013-07-30 14:07:00,
2013-07-30 09:12:00,65.5,61.5,30.09,North,0,0.0,0.0,87,0.00,,,0.00,WUHU21623XXSP,2013-07-30 14:12:00,
2013-07-30 09:17:00,65.5,61.5,30.09,North,0,0.0,0.0,87,0.00,,,0.00,WUHU21623XXSP,2013-07-30 14:17:00,
2013-07-30 09:22:00,65.5,61.2,30.09,North,0,0.0,0.0,86,0.00,,,0.00,WUHU21623XXSP,2013-07-30 14:22:00,
2013-07-30 09:27:00,65.5,61.2,30.09,North,0,0.0,0.0,86,0.00,,,0.00,WUHU21623XXSP,2013-07-30 14:27:00,
2013-07-30 09:32:00,65.8,61.5,30.09,North,0,0.0,0.0,86,0.00,,,0.00,WUHU21623XXSP,2013-07-30 14:32:00,
2013-07-30 09:37:00,66.0,61.7,30.09,North,0,0.0,0.0,86,0.00,,,0.00,WUHU21623XXSP,2013-07-30 14:37:00,
2013-07-30 09:38:00,66.0,61.7,30.09,North,0,0.0,0.0,86,0.00,,,0.00,WUHU21623XXSP,2013-07-30 14:38:00,
2013-07-30 09:43:00,66.0,61.7,30.09,North,0,0.0,0.0,86,0.00,,,0.00,WUHU21623XXSP,2013-07-30 14:43:00,
2013-07-30 09:48:00,66.4,62.0,30.09,North,0,0.0,0.0,86,0.00,,,0.00,WUHU21623XXSP,2013-07-30 14:48:00,
2013-07-30 09:53:00,66.7,62.4,30.08,North,0,0.0,0.0,86,0.00,,,0.00,WUHU21623XXSP,2013-07-30 14:53:00,
2013-07-30 09:58:00,67.1,62.7,30.09,North,0,0.0,0.0,86,0.00,,,0.00,WUHU21623XXSP,2013-07-30 14:58:00,
2013-07-30 10:03:00,67.3,62.6,30.09,North,0,0.0,0.0,85,0.00,,,0.00,WUHU21623XXSP,2013-07-30 15:03:00,
2013-07-30 10:08:00,67.8,63.1,30.09,North,0,0.0,0.0,85,0.00,,,0.00,WUHU21623XXSP,2013-07-30 15:08:00,
2013-07-30 10:13:00,67.8,62.8,30.09,North,0,0.0,0.0,84,0.00,,,0.00,WUHU21623XXSP,2013-07-30 15:13:00,
2013-07-30 10:18:00,68.2,63.2,30.09,North,0,0.0,0.0,84,0.00,,,0.00,WUHU21623XXSP,2013-07-30 15:18:00,
2013-07-30 10:23:00,68.4,63.3,30.09,North,0,0.0,0.0,84,0.00,,,0.00,WUHU21623XXSP,2013-07-30 15:23:00,
2013-07-30 10:28:00,68.4,63.0,30.08,North,0,0.0,0.0,83,0.00,,,0.00,WUHU21623XXSP,2013-07-30 15:28:00,
2013-07-30 10:33:00,68.4,63.0,30.08,North,0,0.0,0.0,83,0.00,,,0.00,WUHU21623XXSP,2013-07-30 15:33:00,
2013-07-30 10:38:00,68.7,63.3,30.08,North,0,0.0,0.0,83,0.00,,,0.00,WUHU21623XXSP,2013-07-30 15:38:00,
2013-07-30 10:43:00,69.1,63.7,30.08,North,0,0.0,0.0,83,0.00,,,0.00,WUHU21623XXSP,2013-07-30 15:43:00,
2013-07-30 10:48:00,69.4,63.7,30.08,North,0,0.0,0.0,82,0.00,,,0.00,WUHU21623XXSP,2013-07-30 15:48:00,
2013-07-30 10:53:00,69.8,64.0,30.08,North,0,0.0,0.0,82,0.00,,,0.00,WUHU21623XXSP,2013-07-30 15:53:00,
2013-07-30 10:58:00,70.2,64.4,30.08,North,0,0.0,0.0,82,0.00,,,0.00,WUHU21623XXSP,2013-07-30 15:58:00,
2013-07-30 11:03:00,70.5,64.4,30.08,North,0,0.0,0.0,81,0.00,,,0.00,WUHU21623XXSP,2013-07-30 16:03:00,
2013-07-30 11:08:00,70.9,64.4,30.08,North,0,0.0,0.0,80,0.00,,,0.00,WUHU21623XXSP,2013-07-30 16:08:00,
2013-07-30 11:13:00,71.2,64.8,30.08,North,0,0.0,0.0,80,0.00,,,0.00,WUHU21623XXSP,2013-07-30 16:13:00,
2013-07-30 11:18:00,71.4,64.9,30.08,North,0,0.0,0.0,80,0.00,,,0.00,WUHU21623XXSP,2013-07-30 16:18:00,
2013-07-30 11:23:00,71.6,64.7,30.08,North,0,0.0,0.0,79,0.00,,,0.00,WUHU21623XXSP,2013-07-30 16:23:00,
2013-07-30 11:28:00,71.4,64.6,30.08,North,0,0.0,0.0,79,0.00,,,0.00,WUHU21623XXSP,2013-07-30 16:28:00,
2013-07-30 11:33:00,71.2,64.4,30.08,North,0,0.0,0.0,79,0.00,,,0.00,WUHU21623XXSP,2013-07-30 16:33:00,
2013-07-30 11:38:00,71.2,64.4,30.08,North,0,0.0,0.0,79,0.00,,,0.00,WUHU21623XXSP,2013-07-30 16:38:00,
2013-07-30 11:43:00,71.4,64.6,30.08,North,0,0.0,0.0,79,0.00,,,0.00,WUHU21623XXSP,2013-07-30 16:43:00,
2013-07-30 11:48:00,71.4,64.6,30.08,North,0,0.0,0.0,79,0.00,,,0.00,WUHU21623XXSP,2013-07-30 16:48:00,
2013-07-30 11:53:00,71.4,64.6,30.08,North,0,0.0,0.0,79,0.00,,,0.00,WUHU21623XXSP,2013-07-30 16:53:00,
2013-07-30 11:58:00,71.4,64.6,30.08,North,0,0.0,0.0,79,0.00,,,0.00,WUHU21623XXSP,2013-07-30 16:58:00,
2013-07-30 12:03:00,71.6,64.7,30.08,North,0,0.0,0.0,79,0.00,,,0.00,WUHU21623XXSP,2013-07-30 17:03:00,
2013-07-30 12:08:00,71.8,64.9,30.09,North,0,0.0,0.0,79,0.00,,,0.00,WUHU21623XXSP,2013-07-30 17:08:00,
2013-07-30 12:13:00,71.8,64.9,30.09,North,0,0.0,0.0,79,0.00,,,0.00,WUHU21623XXSP,2013-07-30 17:13:00,
2013-07-30 12:18:00,72.0,64.7,30.09,North,0,0.0,0.0,78,0.00,,,0.00,WUHU21623XXSP,2013-07-30 17:18:00,
2013-07-30 12:23:00,72.1,64.9,30.08,North,0,0.0,0.0,78,0.00,,,0.00,WUHU21623XXSP,2013-07-30 17:23:00,
2013-07-30 12:28:00,72.3,65.1,30.08,North,0,0.0,0.0,78,0.00,,,0.00,WUHU21623XXSP,2013-07-30 17:28:00,
2013-07-30 12:33:00,73.0,65.8,30.08,North,0,0.0,0.0,78,0.00,,,0.00,WUHU21623XXSP,2013-07-30 17:33:00,
2013-07-30 12:38:00,73.6,65.9,30.08,North,0,0.0,0.0,77,0.00,,,0.00,WUHU21623XXSP,2013-07-30 17:38:00,
2013-07-30 12:43:00,73.9,65.9,30.08,North,0,0.0,0.0,76,0.00,,,0.00,WUHU21623XXSP,2013-07-30 17:43:00,
2013-07-30 12:48:00,74.3,65.9,30.08,North,0,0.0,0.0,75,0.00,,,0.00,WUHU21623XXSP,2013-07-30 17:48:00,
2013-07-30 12:53:00,73.9,65.5,30.08,North,0,0.0,0.0,75,0.00,,,0.00,WUHU21623XXSP,2013-07-30 17:53:00,
2013-07-30 12:58:00,73.8,65.4,30.08,North,0,0.0,0.0,75,0.00,,,0.00,WUHU21623XXSP,2013-07-30 17:58:00,
2013-07-30 13:04:00,73.2,64.8,30.08,North,0,0.0,0.0,75,0.00,,,0.00,WUHU21623XXSP,2013-07-30 18:04:00,
2013-07-30 13:09:00,72.9,64.5,30.08,North,0,0.0,0.0,75,0.00,,,0.00,WUHU21623XXSP,2013-07-30 18:09:00,
2013-07-30 13:14:00,72.9,64.9,30.07,North,0,0.0,0.0,76,0.00,,,0.00,WUHU21623XXSP,2013-07-30 18:14:00,
2013-07-30 13:19:00,72.9,64.9,30.07,North,0,0.0,0.0,76,0.00,,,0.00,WUHU21623XXSP,2013-07-30 18:19:00,
2013-07-30 13:24:00,72.9,65.2,30.07,North,0,0.0,0.0,77,0.00,,,0.00,WUHU21623XXSP,2013-07-30 18:24:00,
2013-07-30 13:29:00,73.0,65.4,30.07,North,0,0.0,0.0,77,0.00,,,0.00,WUHU21623XXSP,2013-07-30 18:29:00,
2013-07-30 13:34:00,73.0,65.0,30.07,North,0,0.0,0.0,76,0.00,,,0.00,WUHU21623XXSP,2013-07-30 18:34:00,
2013-07-30 13:39:00,73.2,65.6,30.07,North,0,0.0,0.0,77,0.00,,,0.00,WUHU21623XXSP,2013-07-30 18:39:00,
2013-07-30 13:44:00,73.2,65.2,30.07,North,0,0.0,0.0,76,0.00,,,0.00,WUHU21623XXSP,2013-07-30 18:44:00,
2013-07-30 13:49:00,73.0,65.0,30.07,North,0,0.0,0.0,76,0.00,,,0.00,WUHU21623XXSP,2013-07-30 18:49:00,
2013-07-30 13:54:00,73.0,65.4,30.07,North,0,0.0,0.0,77,0.00,,,0.00,WUHU21623XXSP,2013-07-30 18:54:00,
2013-07-30 13:59:00,72.9,65.2,30.07,North,0,0.0,0.0,77,0.00,,,0.00,WUHU21623XXSP,2013-07-30 18:59:00,
2013-07-30 14:04:00,72.7,64.7,30.07,North,0,0.0,0.0,76,0.00,,,0.00,WUHU21623XXSP,2013-07-30 19:04:00,
2013-07-30 14:09:00,72.7,64.7,30.07,North,0,0.0,0.0,76,0.00,,,0.00,WUHU21623XXSP,2013-07-30 19:09:00,
2013-07-30 14:14:00,72.5,64.9,30.07,North,0,0.0,0.0,77,0.00,,,0.00,WUHU21623XXSP,2013-07-30 19:14:00,
2013-07-30 14:19:00,72.3,64.3,30.07,North,0,0.0,0.0,76,0.00,,,0.00,WUHU21623XXSP,2013-07-30 19:19:00,
2013-07-30 14:24:00,72.0,64.3,30.07,North,0,0.0,0.0,77,0.00,,,0.00,WUHU21623XXSP,2013-07-30 19:24:00,
2013-07-30 14:29:00,71.4,63.8,30.07,North,0,0.0,0.0,77,0.00,,,0.00,WUHU21623XXSP,2013-07-30 19:29:00,
2013-07-30 14:34:00,71.4,64.2,30.07,North,0,0.0,0.0,78,0.00,,,0.00,WUHU21623XXSP,2013-07-30 19:34:00,
2013-07-30 14:39:00,71.8,64.5,30.06,North,0,0.0,0.0,78,0.00,,,0.00,WUHU21623XXSP,2013-07-30 19:39:00,
2013-07-30 14:44:00,72.0,64.3,30.06,North,0,0.0,0.0,77,0.00,,,0.00,WUHU21623XXSP,2013-07-30 19:44:00,
2013-07-30 14:49:00,72.1,64.5,30.06,North,0,0.0,0.0,77,0.00,,,0.00,WUHU21623XXSP,2013-07-30 19:49:00,
2013-07-30 14:54:00,72.3,64.7,30.06,North,0,0.0,0.0,77,0.00,,,0.00,WUHU21623XXSP,2013-07-30 19:54:00,
2013-07-30 14:59:00,72.1,64.5,30.06,North,0,0.0,0.0,77,0.00,,,0.00,WUHU21623XXSP,2013-07-30 19:59:00,
2013-07-30 15:04:00,72.0,64.3,30.07,North,0,0.0,0.0,77,0.00,,,0.00,WUHU21623XXSP,2013-07-30 20:04:00,
2013-07-30 15:09:00,71.8,64.2,30.07,North,0,0.0,0.0,77,0.00,,,0.00,WUHU21623XXSP,2013-07-30 20:09:00,
2013-07-30 15:14:00,71.8,64.5,30.06,North,0,0.0,0.0,78,0.00,,,0.00,WUHU21623XXSP,2013-07-30 20:14:00,
2013-07-30 15:19:00,71.8,64.5,30.06,North,0,0.0,0.0,78,0.00,,,0.00,WUHU21623XXSP,2013-07-30 20:19:00,
2013-07-30 15:25:00,72.0,64.3,30.06,North,0,0.0,0.0,77,0.00,,,0.00,WUHU21623XXSP,2013-07-30 20:25:00,
2013-07-30 15:30:00,72.1,64.5,30.06,North,0,0.0,0.0,77,0.00,,,0.00,WUHU21623XXSP,2013-07-30 20:30:00,
2013-07-30 15:35:00,72.3,64.7,30.06,North,0,0.0,0.0,77,0.00,,,0.00,WUHU21623XXSP,2013-07-30 20:35:00,
2013-07-30 15:40:00,72.9,64.9,30.06,North,0,0.0,0.0,76,0.00,,,0.00,WUHU21623XXSP,2013-07-30 20:40:00,
2013-07-30 15:45:00,73.0,65.0,30.06,North,0,0.0,0.0,76,0.00,,,0.00,WUHU21623XXSP,2013-07-30 20:45:00,
2013-07-30 15:50:00,73.2,65.2,30.06,North,0,0.0,0.0,76,0.00,,,0.00,WUHU21623XXSP,2013-07-30 20:50:00,
2013-07-30 15:55:00,73.4,65.4,30.07,North,0,0.0,0.0,76,0.00,,,0.00,WUHU21623XXSP,2013-07-30 20:55:00,
2013-07-30 16:00:00,73.4,65.4,30.06,North,0,0.0,0.0,76,0.00,,,0.00,WUHU21623XXSP,2013-07-30 21:00:00,
2013-07-30 16:05:00,73.5,65.6,30.06,North,0,0.0,0.0,76,0.00,,,0.00,WUHU21623XXSP,2013-07-30 21:05:00,
2013-07-30 16:10:00,72.9,64.7,30.06,North,0,0.0,0.0,75,0.00,,,0.00,WUHU21623XXSP,2013-07-30 21:10:00,
2013-07-30 16:15:00,72.8,64.5,30.06,North,0,0.0,0.0,75,0.00,,,0.00,WUHU21623XXSP,2013-07-30 21:15:00,
2013-07-30 16:20:00,72.4,64.6,30.07,North,0,0.0,0.0,76,0.00,,,0.00,WUHU21623XXSP,2013-07-30 21:20:00,
2013-07-30 16:25:00,72.0,64.1,30.07,North,0,0.0,0.0,76,0.00,,,0.00,WUHU21623XXSP,2013-07-30 21:25:00,
2013-07-30 16:30:00,71.4,63.6,30.06,North,0,0.0,0.0,76,0.00,,,0.00,WUHU21623XXSP,2013-07-30 21:30:00,
2013-07-30 16:35:00,71.2,63.4,30.07,North,0,0.0,0.0,76,0.00,,,0.00,WUHU21623XXSP,2013-07-30 21:35:00,
2013-07-30 16:40:00,70.9,63.1,30.07,North,0,0.0,0.0,76,0.00,,,0.00,WUHU21623XXSP,2013-07-30 21:40:00,
2013-07-30 16:45:00,70.8,63.0,30.07,North,0,0.0,0.0,76,0.00,,,0.00,WUHU21623XXSP,2013-07-30 21:45:00,
2013-07-30 16:50:00,70.8,63.0,30.07,North,0,0.0,0.0,76,0.00,,,0.00,WUHU21623XXSP,2013-07-30 21:50:00,
2013-07-30 16:55:00,70.5,62.7,30.06,North,0,0.0,0.0,76,0.00,,,0.00,WUHU21623XXSP,2013-07-30 21:55:00,
2013-07-30 16:57:00,70.4,62.6,30.07,North,0,0.0,0.0,76,0.00,,,0.00,WUHU21623XXSP,2013-07-30 21:57:00,
2013-07-30 17:02:00,70.3,62.5,30.07,North,0,0.0,0.0,76,0.00,,,0.00,WUHU21623XXSP,2013-07-30 22:02:00,
2013-07-30 17:07:00,70.4,62.6,30.06,North,0,0.0,0.0,76,0.00,,,0.00,WUHU21623XXSP,2013-07-30 22:07:00,
2013-07-30 17:12:00,70.2,62.5,30.06,North,0,0.0,0.0,76,0.00,,,0.00,WUHU21623XXSP,2013-07-30 22:12:00,
2013-07-30 17:17:00,70.3,62.5,30.06,North,0,0.0,0.0,76,0.00,,,0.00,WUHU21623XXSP,2013-07-30 22:17:00,
2013-07-30 17:22:00,70.4,63.0,30.06,North,0,0.0,0.0,77,0.00,,,0.00,WUHU21623XXSP,2013-07-30 22:22:00,
2013-07-30 17:27:00,70.3,62.5,30.06,North,0,0.0,0.0,76,0.00,,,0.00,WUHU21623XXSP,2013-07-30 22:27:00,
2013-07-30 17:32:00,70.0,62.2,30.06,North,0,0.0,0.0,76,0.00,,,0.00,WUHU21623XXSP,2013-07-30 22:32:00,
2013-07-30 17:37:00,69.7,61.9,30.06,North,0,0.0,0.0,76,0.00,,,0.00,WUHU21623XXSP,2013-07-30 22:37:00,
2013-07-30 17:42:00,69.6,62.2,30.07,North,0,0.0,0.0,77,0.00,,,0.00,WUHU21623XXSP,2013-07-30 22:42:00,
2013-07-30 17:47:00,69.5,62.1,30.07,North,0,0.0,0.0,77,0.00,,,0.00,WUHU21623XXSP,2013-07-30 22:47:00,
2013-07-30 17:52:00,69.2,61.8,30.07,North,0,0.0,0.0,77,0.00,,,0.00,WUHU21623XXSP,2013-07-30 22:52:00,
2013-07-30 17:57:00,69.0,61.6,30.07,North,0,0.0,0.0,77,0.00,,,0.00,WUHU21623XXSP,2013-07-30 22:57:00,
2013-07-30 18:02:00,68.8,61.4,30.07,North,0,0.0,0.0,77,0.00,,,0.00,WUHU21623XXSP,2013-07-30 23:02:00,
2013-07-30 18:07:00,68.7,61.6,30.07,North,0,0.0,0.0,78,0.00,,,0.00,WUHU21623XXSP,2013-07-30 23:07:00,
2013-07-30 18:12:00,68.4,61.4,30.06,North,0,0.0,0.0,78,0.00,,,0.00,WUHU21623XXSP,2013-07-30 23:12:00,
2013-07-30 18:17:00,68.2,61.1,30.06,North,0,0.0,0.0,78,0.00,,,0.00,WUHU21623XXSP,2013-07-30 23:17:00,
2013-07-30 18:22:00,68.1,61.1,30.06,North,0,0.0,0.0,78,0.00,,,0.00,WUHU21623XXSP,2013-07-30 23:22:00,
2013-07-30 18:27:00,68.0,61.0,30.06,North,0,0.0,0.0,78,0.00,,,0.00,WUHU21623XXSP,2013-07-30 23:27:00,
2013-07-30 18:32:00,68.0,61.0,30.06,North,0,0.0,0.0,78,0.00,,,0.00,WUHU21623XXSP,2013-07-30 23:32:00,
2013-07-30 18:37:00,67.8,61.1,30.06,North,0,0.0,0.0,79,0.00,,,0.00,WUHU21623XXSP,2013-07-30 23:37:00,
2013-07-30 18:42:00,67.7,61.1,30.06,North,0,0.0,0.0,79,0.00,,,0.00,WUHU21623XXSP,2013-07-30 23:42:00,
2013-07-30 18:47:00,67.7,61.4,30.06,North,0,0.0,0.0,80,0.00,,,0.00,WUHU21623XXSP,2013-07-30 23:47:00,
2013-07-30 18:52:00,67.4,61.1,30.06,North,0,0.0,0.0,80,0.00,,,0.00,WUHU21623XXSP,2013-07-30 23:52:00,
2013-07-30 18:57:00,67.2,60.9,30.06,North,0,0.0,0.0,80,0.00,,,0.00,WUHU21623XXSP,2013-07-30 23:57:00,
2013-07-30 19:02:00,67.2,60.9,30.06,North,0,0.0,0.0,80,0.00,,,0.00,WUHU21623XXSP,2013-07-31 00:02:00,
2013-07-30 19:07:00,67.0,60.7,30.07,North,0,0.0,0.0,80,0.00,,,0.00,WUHU21623XXSP,2013-07-31 00:07:00,
2013-07-30 19:12:00,67.0,60.7,30.06,North,0,0.0,0.0,80,0.00,,,0.00,WUHU21623XXSP,2013-07-31 00:12:00,
2013-07-30 19:17:00,66.8,60.9,30.07,North,0,0.0,0.0,81,0.00,,,0.00,WUHU21623XXSP,2013-07-31 00:17:00,
2013-07-30 19:23:00,66.9,60.9,30.07,North,0,0.0,0.0,81,0.00,,,0.00,WUHU21623XXSP,2013-07-31 00:23:00,
2013-07-30 19:28:00,66.6,60.6,30.08,North,0,0.0,0.0,81,0.00,,,0.00,WUHU21623XXSP,2013-07-31 00:28:00,
2013-07-30 19:33:00,66.6,61.0,30.08,North,0,0.0,0.0,82,0.00,,,0.00,WUHU21623XXSP,2013-07-31 00:33:00,
2013-07-30 19:38:00,66.5,60.9,30.08,North,0,0.0,0.0,82,0.00,,,0.00,WUHU21623XXSP,2013-07-31 00:38:00,
2013-07-30 19:43:00,66.3,60.7,30.07,North,0,0.0,0.0,82,0.00,,,0.00,WUHU21623XXSP,2013-07-31 00:43:00,
2013-07-30 19:48:00,66.4,60.8,30.07,North,0,0.0,0.0,82,0.00,,,0.00,WUHU21623XXSP,2013-07-31 00:48:00,
2013-07-30 19:53:00,66.5,60.8,30.07,North,0,0.0,0.0,82,0.00,,,0.00,WUHU21623XXSP,2013-07-31 00:53:00,
2013-07-30 19:58:00,66.5,60.9,30.07,North,0,0.0,0.0,82,0.00,,,0.00,WUHU21623XXSP,2013-07-31 00:58:00,
2013-07-30 20:03:00,66.4,60.8,30.06,North,0,0.0,0.0,82,0.00,,,0.00,WUHU21623XXSP,2013-07-31 01:03:00,
2013-07-30 20:08:00,66.5,60.9,30.07,North,0,0.0,0.0,82,0.00,,,0.00,WUHU21623XXSP,2013-07-31 01:08:00,
2013-07-30 20:13:00,66.5,61.2,30.06,North,0,0.0,0.0,83,0.00,,,0.00,WUHU21623XXSP,2013-07-31 01:13:00,
2013-07-30 20:18:00,66.6,61.3,30.06,North,0,0.0,0.0,83,0.00,,,0.00,WUHU21623XXSP,2013-07-31 01:18:00,
2013-07-30 20:23:00,66.7,61.4,30.06,North,0,0.0,0.0,83,0.00,,,0.00,WUHU21623XXSP,2013-07-31 01:23:00,
2013-07-30 20:28:00,66.6,61.3,30.06,North,0,0.0,0.0,83,0.00,,,0.00,WUHU21623XXSP,2013-07-31 01:28:00,
2013-07-30 20:33:00,66.5,61.2,30.06,North,0,0.0,0.0,83,0.00,,,0.00,WUHU21623XXSP,2013-07-31 01:33:00,
2013-07-30 20:38:00,66.6,61.3,30.06,North,0,0.0,0.0,83,0.00,,,0.00,WUHU21623XXSP,2013-07-31 01:38:00,
2013-07-30 20:43:00,66.5,61.5,30.06,North,0,0.0,0.0,84,0.00,,,0.00,WUHU21623XXSP,2013-07-31 01:43:00,
2013-07-30 20:48:00,66.6,61.7,30.05,North,0,0.0,0.0,84,0.00,,,0.00,WUHU21623XXSP,2013-07-31 01:48:00,
2013-07-30 20:53:00,66.6,61.3,30.06,North,0,0.0,0.0,83,0.00,,,0.00,WUHU21623XXSP,2013-07-31 01:53:00,
2013-07-30 20:58:00,66.7,61.7,30.05,North,0,0.0,0.0,84,0.00,,,0.00,WUHU21623XXSP,2013-07-31 01:58:00,
2013-07-30 21:03:00,66.7,61.8,30.05,North,0,0.0,0.0,84,0.00,,,0.00,WUHU21623XXSP,2013-07-31 02:03:00,
2013-07-30 21:08:00,66.6,61.7,30.06,North,0,0.0,0.0,84,0.00,,,0.00,WUHU21623XXSP,2013-07-31 02:08:00,
2013-07-30 21:13:00,66.8,61.8,30.05,North,0,0.0,0.0,84,0.00,,,0.00,WUHU21623XXSP,2013-07-31 02:13:00,
2013-07-30 21:18:00,66.5,61.6,30.05,North,0,0.0,0.0,84,0.00,,,0.00,WUHU21623XXSP,2013-07-31 02:18:00,
2013-07-30 21:23:00,66.7,62.0,30.05,North,0,0.0,0.0,85,0.00,,,0.00,WUHU21623XXSP,2013-07-31 02:23:00,
2013-07-30 21:28:00,66.6,62.0,30.05,North,0,0.0,0.0,85,0.00,,,0.00,WUHU21623XXSP,2013-07-31 02:28:00,
2013-07-30 21:33:00,66.8,62.2,30.05,North,0,0.0,0.0,85,0.00,,,0.00,WUHU21623XXSP,2013-07-31 02:33:00,
2013-07-30 21:38:00,66.6,62.0,30.05,North,0,0.0,0.0,85,0.00,,,0.00,WUHU21623XXSP,2013-07-31 02:38:00,
2013-07-30 21:43:00,66.7,62.1,30.04,North,0,0.0,0.0,85,0.00,,,0.00,WUHU21623XXSP,2013-07-31 02:43:00,
2013-07-30 21:48:00,66.7,62.4,30.04,North,0,0.0,0.0,86,0.00,,,0.00,WUHU21623XXSP,2013-07-31 02:48:00,
2013-07-30 21:53:00,66.9,62.6,30.03,North,0,0.0,0.0,86,0.00,,,0.00,WUHU21623XXSP,2013-07-31 02:53:00,
2013-07-30 21:58:00,67.0,62.7,30.03,North,0,0.0,0.0,86,0.00,,,0.00,WUHU21623XXSP,2013-07-31 02:58:00,
2013-07-30 22:03:00,66.9,62.6,30.05,North,0,0.0,0.0,86,0.00,,,0.00,WUHU21623XXSP,2013-07-31 03:03:00,
2013-07-30 22:08:00,66.9,62.6,30.05,North,0,0.0,0.0,86,0.00,,,0.00,WUHU21623XXSP,2013-07-31 03:08:00,
2013-07-30 22:13:00,66.9,62.6,30.05,North,0,0.0,0.0,86,0.00,,,0.00,WUHU21623XXSP,2013-07-31 03:13:00,
2013-07-30 22:18:00,66.9,62.6,30.05,North,0,0.0,0.0,86,0.00,,,0.00,WUHU21623XXSP,2013-07-31 03:18:00,
2013-07-30 23:05:00,65.5,61.8,30.06,North,0,0.0,0.0,88,0.00,,,0.00,WUHU21623XXSP,2013-07-31 04:05:00,
2013-07-30 23:11:00,65.5,61.8,30.06,North,0,0.0,0.0,88,0.00,,,0.00,WUHU21623XXSP,2013-07-31 04:11:00,
2013-07-30 23:16:00,65.3,61.7,30.05,North,0,0.0,0.0,88,0.00,,,0.00,WUHU21623XXSP,2013-07-31 04:16:00,
2013-07-30 23:21:00,65.1,61.5,30.05,North,0,0.0,0.0,88,0.00,,,0.00,WUHU21623XXSP,2013-07-31 04:21:00,
2013-07-30 23:26:00,64.9,61.3,30.05,North,0,0.0,0.0,88,0.00,,,0.00,WUHU21623XXSP,2013-07-31 04:26:00,
2013-07-30 23:31:00,64.9,61.3,30.06,North,0,0.0,0.0,88,0.00,,,0.00,WUHU21623XXSP,2013-07-31 04:31:00,
2013-07-30 23:36:00,64.8,61.5,30.06,North,0,0.0,0.0,89,0.00,,,0.00,WUHU21623XXSP,2013-07-31 04:36:00,
2013-07-30 23:41:00,64.6,61.3,30.05,North,0,0.0,0.0,89,0.00,,,0.00,WUHU21623XXSP,2013-07-31 04:41:00,
2013-07-30 23:46:00,64.2,61.0,30.05,North,0,0.0,0.0,89,0.00,,,0.00,WUHU21623XXSP,2013-07-31 04:46:00,
2013-07-30 23:51:00,64.2,61.0,30.05,North,0,0.0,0.0,89,0.00,,,0.00,WUHU21623XXSP,2013-07-31 04:51:00,
2013-07-30 23:56:00,64.2,61.0,30.05,North,0,0.0,0.0,89,0.00,,,0.00,WUHU21623XXSP,2013-07-31 04:56:00,